Regional Weather Roundup
Issued by NWS

Home | Current Version | Previous Version | Text Only | Print | Product List | Glossary Off
Versions: 1 2 3 4 5 6 7 8 9 10 11 12 13 14 15 16 17 18 19 20 21 22 23 24 25 26 27 28 29 30 31 32 33 34 35 36 37 38 39 40 41 42 43 44 45 46 47 48 49 50

656
ASUS43 KLOT 251303
RWRIL

ILLINOIS REGIONAL WEATHER ROUNDUP
NATIONAL WEATHER SERVICE CHICAGO/ROMEOVILLE IL
800 AM CDT SUN SEP 25 2016

NOTE: "FAIR" INDICATES FEW OR NO CLOUDS BELOW 12,000 FEET WITH NO
SIGNIFICANT WEATHER AND/OR OBSTRUCTIONS TO VISIBILITY.

* THESE STATIONS ARE NOT UNDER NWS QUALITY CONTROL. THEY ALSO MAY NOT
  REPORT WEATHER SUCH AS PRECIPITATION OR FOG.

ILZ001-002-007-009-015-016-024-251400-
NORTHWEST ILLINOIS

CITY           SKY/WX    TMP DP  RH WIND       PRES   REMARKS
MOLINE         CLOUDY    70  65  84 VRB3      30.01R
STERLING*      CLOUDY    68  66  93 SE6       30.04S FOG
$$

ILZ003-004-008-010-011-017-018-251400-
NORTH CENTRAL ILLINOIS

CITY           SKY/WX    TMP DP  RH WIND       PRES   REMARKS
ROCKFORD       PTSUNNY   67  64  90 S9        30.06S
FREEPORT*      MOSUNNY   65  64  96 SE6       30.05S FOG
ROCHELLE*      PTSUNNY   67  64  91 SE13      30.06S
$$

ILZ005-006-012>014-019>023-251400-
NORTHEAST ILLINOIS

CITY           SKY/WX    TMP DP  RH WIND       PRES   REMARKS
CHICAGO-OHARE  PTSUNNY   65  58  78 SE10      30.08F
CHICAGO-MIDWAY MOSUNNY   66  56  70 SE9       30.09S
AURORA         SUNNY     65  61  87 SE9       30.09R
LANSING*       SUNNY     63  56  80 SE7       30.11S
JOLIET*        SUNNY     65  61  86 SE6       30.10R
WAUKEGAN       SUNNY     66  60  81 SE13      30.08S
DUPAGE AIRPORT SUNNY     65  59  81 SE6       30.09R
KANKAKEE*      SUNNY     63  59  88 SE7       30.11S
WHEELING       SUNNY     65  58  78 S7        30.10S
MORRIS*        SUNNY     65  62  89 SE3       30.08R
ROMEOVILLE*    SUNNY     64  61  92 SE8       30.10R
NORTHERLY ISL    N/A     65  56  72 SE9         N/A
$$

LMZ740>746-251400-
SOUTHERN LAKE MICHIGAN

STATION/POSITION SKY/WX   TEMP    WIND        PRES    VSBY  WAVE
                          AIR SEA DIR/SP/G                  HT/PER
                          (F)     (DEG/KT/KT) (MB)    (MI)  (FT/S)
SOUTHERN BUOY              67 72  140/ 17/ 23 1019.1          4/ 5
WILMETTE HARBOR            65 64  170/ 16/ 19   N/A           4/ 4
HARRISON CRIB              66     150/ 17/ 20   N/A
BURNHAM HARBOR             65     150/  8/ 11   N/A
CALUMET HARBOR             64     130/  5/  9 1019.0S
BURNS HARBOR               63     140/ 15/ 24 1020.0R
MICHIGAN CITY              61     120/ 14/ 18   N/A
MICHIGAN CITY 6N           62 67  150/ 12/ 14   N/A           2/ 2
ST. JOSEPH                 62 68  130/ 12/ 14 1020.4R         1/ 2
$$

ILZ025>027-034>036-040-047-049-050-058-095>099-251400-
WEST-CENTRAL ILLINOIS

CITY           SKY/WX    TMP DP  RH WIND       PRES   REMARKS
QUINCY         MOSUNNY   72  67  84 S7        30.02F
GALESBURG*     CLOUDY    70  65  86 SE6       30.03S
MACOMB*        CLOUDY    69  68  96 CALM      30.04S FOG
JACKSONVILLE*  SUNNY     74  67  80 S5        30.05S
PITTSFIELD*    MOSUNNY   71  69  93 SE5       30.05F FOG
$$

ILZ028>032-037-038-041>044-048-051>054-059>061-251400-
CENTRAL ILLINOIS

CITY           SKY/WX    TMP DP  RH WIND       PRES   REMARKS
PONTIAC        PTSUNNY   67  67 100 SE7       30.09S FOG
BLOOMINGTON    MOSUNNY   68  67  96 SE9       30.08F FOG
DECATUR        MOSUNNY   69  67  93 SE5       30.08F FOG
PEORIA         SUNNY     71  68  90 S6        30.05S
LACON*         SUNNY     68  66  93 CALM      30.04F FOG
LINCOLN*       SUNNY     70  70 100 SE6       30.06S FOG
SPRINGFIELD    SUNNY     72  66  81 VRB5      30.06S
TAYLORVILLE    SUNNY     70  66  88 SE7       30.07S
$$

ILZ033-039-045-046-055>057-062-063-251400-
EAST-CENTRAL ILLINOIS

CITY           SKY/WX    TMP DP  RH WIND       PRES   REMARKS
CHAMPAIGN      SUNNY     67  65  93 SE7       30.10R FOG
RANTOUL*       SUNNY     67  66  96 SE7       30.10S FOG
MATTOON        SUNNY     70  67  90 S8        30.09R FOG
PARIS*         MOSUNNY   67  67  98 SE3       30.11S FOG
$$

ILZ079-100>102-251400-
SOUTHWEST ILLINOIS

CITY           SKY/WX    TMP DP  RH WIND       PRES   REMARKS
ALTON          MOSUNNY   68  66  94 CALM      30.07R FOG
BELLEVILLE     MOSUNNY   69  69 100 SE1       30.05S
CAHOKIA*       SUNNY     71  68  90 CALM      30.05S
SPARTA*        PTSUNNY   71  69  92 S3        30.08S
$$

ILZ064>066-069>071-074>076-080>082-084>086-088>090-092>094-251400-
SOUTH-CENTRAL ILLINOIS

CITY           SKY/WX    TMP DP  RH WIND       PRES   REMARKS
CARBONDALE     FOG       69  69 100 CALM      30.08R VSB 1
EFFINGHAM*     SUNNY     69  69 100 E3        30.10S FOG
MARION         SUNNY     73  72  94 SE6       30.09R
MT. VERNON     SUNNY     68  63  83 CALM      30.09S
CENTRALIA*     SUNNY     71  69  95 CALM      30.07S
SALEM*         SUNNY     71  67  85 CALM      30.08S
$$

ILZ067-068-072-073-078-083-087-091-251400-
SOUTHEAST ILLINOIS

CITY           SKY/WX    TMP DP  RH WIND       PRES   REMARKS
LAWRENCEVILLE  SUNNY     69  67  93 E3        30.11R FOG
FLORA*         SUNNY     69  68  95 CALM      30.09S FOG
FAIRFIELD*       N/A     70  67  89 CALM      30.08S
HARRISBURG*    SUNNY     69  69 100 CALM      30.09S FOG
ROBINSON*      FOG       64  64 100 CALM      30.11S VSB 1/4
CARMI*         SUNNY     68  68  99 CALM      30.08S FOG
$$

ABBREVIATIONS USED IN REMARKS
   TC - TEMPERATURE IN CELSIUS
  WCI - WIND CHILL INDEX
   HX - HEAT INDEX
  VSB - VISIBILITY
$$





USA.gov is the U.S. government's official web portal to all federal, state and local government web resources and services.